| time (UTC) | temp F | wind direction | speed knots | gust knots | rain 1hr in | rain 24hr in | rain mn in | humidity % | barometer mb |
| 20260906122759 | 72 | 106 | 0.0 | 0.0 | 0.00 | 0.00 | 0.00 | 93 | 1012.7 |
| 20260906122255 | 72 | 106 | 0.0 | 0.0 | 0.00 | 0.00 | 0.00 | 93 | 1012.6 |
| 20260906121752 | 71 | 105 | 0.0 | 0.0 | 0.00 | 0.00 | 0.00 | 93 | 1012.5 |
| 20260906121247 | 71 | 105 | 0.0 | 0.0 | 0.00 | 0.00 | 0.00 | 93 | 1012.4 |
| 20260906120743 | 71 | 105 | 0.0 | 0.0 | 0.00 | 0.00 | 0.00 | 93 | 1012.4 |
| 20260906120240 | 71 | 104 | 0.0 | 0.0 | 0.00 | 0.00 | 0.00 | 93 | 1012.3 |
| 20260906115735 | 71 | 104 | 0.0 | 0.0 | 0.00 | 0.00 | 0.00 | 93 | 1012.2 |
| 20260906115230 | 71 | 104 | 0.0 | 0.0 | 0.00 | 0.00 | 0.00 | 93 | 1012.0 |
| 20260906114729 | 71 | 104 | 0.0 | 0.0 | 0.00 | 0.00 | 0.00 | 93 | 1012.3 |
| 20260906114224 | 71 | 104 | 0.0 | 0.0 | 0.00 | 0.00 | 0.00 | 93 | 1012.2 |
| 20260906113720 | 71 | 104 | 0.0 | 0.0 | 0.00 | 0.00 | 0.00 | 93 | 1012.0 |
| 20260906113219 | 71 | 104 | 0.0 | 0.0 | 0.00 | 0.00 | 0.00 | 93 | 1012.2 |
| 20260906112718 | 71 | 104 | 0.0 | 0.0 | 0.00 | 0.00 | 0.00 | 93 | 1012.1 |
| 20260906112216 | 71 | 104 | 0.0 | 0.0 | 0.00 | 0.00 | 0.00 | 93 | 1012.2 |
| 20260906111715 | 71 | 104 | 0.0 | 0.0 | 0.00 | 0.00 | 0.00 | 93 | 1012.2 |
| 20260906111209 | 71 | 104 | 0.0 | 0.0 | 0.00 | 0.00 | 0.00 | 93 | 1012.0 |
| 20260906110704 | 71 | 104 | 0.0 | 0.0 | 0.00 | 0.00 | 0.00 | 93 | 1012.0 |
| 20260906110159 | 71 | 104 | 0.0 | 0.0 | 0.00 | 0.00 | 0.00 | 93 | 1012.1 |
| 20260906105653 | 71 | 104 | 0.0 | 0.0 | 0.00 | 0.00 | 0.00 | 93 | 1012.1 |
| 20260906105149 | 71 | 104 | 0.0 | 0.0 | 0.00 | 0.00 | 0.00 | 93 | 1012.3 |
| 20260906104649 | 71 | 104 | 0.0 | 0.0 | 0.00 | 0.00 | 0.00 | 93 | 1012.1 |
| 20260906104143 | 71 | 104 | 0.0 | 0.0 | 0.00 | 0.00 | 0.00 | 93 | 1012.3 |
| 20260906103641 | 71 | 104 | 0.0 | 0.0 | 0.00 | 0.00 | 0.00 | 93 | 1012.1 |
| 20260906103136 | 71 | 104 | 0.0 | 0.0 | 0.00 | 0.00 | 0.00 | 93 | 1011.9 |
| 20260906102631 | 71 | 104 | 0.0 | 0.0 | 0.00 | 0.00 | 0.00 | 93 | 1011.7 |
| 20260906102126 | 71 | 103 | 0.0 | 0.0 | 0.00 | 0.00 | 0.00 | 93 | 1011.9 |
| 20260906101626 | 71 | 103 | 0.0 | 0.0 | 0.00 | 0.00 | 0.00 | 93 | 1011.9 |
| 20260906101126 | 71 | 103 | 0.0 | 0.0 | 0.00 | 0.00 | 0.00 | 93 | 1011.9 |
| 20260906100621 | 71 | 103 | 0.0 | 0.0 | 0.00 | 0.00 | 0.00 | 93 | 1011.9 |
| 20260906100121 | 71 | 105 | 0.0 | 0.0 | 0.00 | 0.00 | 0.00 | 93 | 1012.2 |
| 20260906095616 | 71 | 105 | 0.0 | 0.0 | 0.00 | 0.00 | 0.00 | 93 | 1012.2 |
| 20260906095112 | 71 | 105 | 0.0 | 0.0 | 0.00 | 0.00 | 0.00 | 93 | 1012.3 |
| 20260906094610 | 71 | 104 | 0.0 | 0.0 | 0.00 | 0.00 | 0.00 | 93 | 1012.2 |
| 20260906094106 | 71 | 104 | 0.0 | 0.0 | 0.00 | 0.00 | 0.00 | 93 | 1012.1 |
| 20260906093602 | 71 | 105 | 0.0 | 0.0 | 0.00 | 0.00 | 0.00 | 93 | 1012.2 |
| 20260906093057 | 71 | 104 | 0.0 | 0.0 | 0.00 | 0.00 | 0.00 | 93 | 1012.1 |
| 20260906092552 | 71 | 105 | 0.0 | 0.0 | 0.00 | 0.00 | 0.00 | 93 | 1012.2 |
| 20260906092047 | 71 | 105 | 0.0 | 0.0 | 0.00 | 0.00 | 0.00 | 93 | 1011.8 |
| 20260906091543 | 71 | 105 | 0.0 | 0.0 | 0.00 | 0.00 | 0.00 | 93 | 1012.0 |
| 20260906091039 | 71 | 105 | 0.0 | 0.0 | 0.00 | 0.00 | 0.00 | 93 | 1011.9 |
| 20260906090533 | 71 | 105 | 0.0 | 0.0 | 0.00 | 0.00 | 0.00 | 93 | 1012.0 |
| 20260906090029 | 71 | 104 | 0.0 | 0.0 | 0.00 | 0.00 | 0.00 | 93 | 1011.9 |
| 20260906085527 | 71 | 104 | 0.0 | 0.0 | 0.00 | 0.00 | 0.00 | 93 | 1011.9 |
| 20260906085027 | 71 | 104 | 0.0 | 0.0 | 0.00 | 0.00 | 0.00 | 93 | 1012.0 |
| 20260906084522 | 71 | 104 | 0.0 | 0.0 | 0.00 | 0.00 | 0.00 | 93 | 1012.0 |
| 20260906084020 | 71 | 104 | 0.0 | 0.0 | 0.00 | 0.00 | 0.00 | 93 | 1011.8 |
| 20260906083516 | 71 | 104 | 0.0 | 0.0 | 0.00 | 0.00 | 0.00 | 93 | 1011.9 |
| 20260906083016 | 71 | 104 | 0.0 | 0.0 | 0.00 | 0.00 | 0.00 | 93 | 1011.7 |
| 20260906082511 | 71 | 104 | 0.0 | 0.0 | 0.00 | 0.00 | 0.00 | 93 | 1011.6 |
| 20260906082007 | 71 | 104 | 0.0 | 0.0 | 0.00 | 0.00 | 0.00 | 93 | 1011.7 |
| 20260906081502 | 71 | 104 | 0.0 | 0.0 | 0.00 | 0.00 | 0.00 | 93 | 1011.8 |
| 20260906080958 | 71 | 104 | 0.0 | 0.0 | 0.00 | 0.00 | 0.00 | 93 | 1011.8 |
| 20260906080454 | 71 | 105 | 0.0 | 0.0 | 0.00 | 0.00 | 0.00 | 93 | 1011.8 |
| 20260906075949 | 71 | 105 | 0.0 | 0.0 | 0.00 | 0.00 | 0.00 | 93 | 1011.8 |
| 20260906075444 | 71 | 104 | 0.0 | 0.0 | 0.00 | 0.00 | 0.00 | 93 | 1011.9 |
| 20260906074939 | 71 | 96 | 0.0 | 0.0 | 0.00 | 0.00 | 0.00 | 93 | 1011.7 |
| 20260906074439 | 71 | 96 | 0.0 | 0.0 | 0.00 | 0.00 | 0.00 | 93 | 1011.8 |
| 20260906073937 | 71 | 96 | 0.0 | 0.0 | 0.00 | 0.00 | 0.00 | 93 | 1011.7 |
| 20260906073432 | 71 | 96 | 0.0 | 0.0 | 0.00 | 0.00 | 0.00 | 93 | 1011.6 |
| 20260906072929 | 71 | 96 | 0.0 | 0.0 | 0.00 | 0.00 | 0.00 | 93 | 1011.6 |
| 20260906072424 | 71 | 104 | 0.0 | 0.0 | 0.00 | 0.00 | 0.00 | 93 | 1011.6 |
| 20260906071920 | 71 | 104 | 0.0 | 0.0 | 0.00 | 0.00 | 0.00 | 93 | 1011.8 |
| 20260906071415 | 71 | 104 | 0.0 | 0.0 | 0.00 | 0.00 | 0.00 | 93 | 1011.8 |
| 20260906070911 | 71 | 104 | 0.0 | 0.0 | 0.00 | 0.00 | 0.00 | 93 | 1011.9 |
| 20260906070407 | 71 | 104 | 0.0 | 0.0 | 0.00 | 0.00 | 0.00 | 93 | 1011.8 |
| 20260906065903 | 71 | 104 | 0.0 | 0.0 | 0.00 | 0.00 | 0.00 | 93 | 1011.9 |
| 20260906065356 | 71 | 108 | 0.0 | 0.0 | 0.00 | 0.00 | 0.00 | 93 | 1011.7 |
| 20260906064853 | 71 | 108 | 0.0 | 0.0 | 0.00 | 0.00 | 0.00 | 93 | 1011.6 |
| 20260906064349 | 71 | 108 | 0.0 | 0.0 | 0.00 | 0.00 | 0.00 | 93 | 1011.8 |
| 20260906063848 | 71 | 101 | 0.0 | 0.0 | 0.00 | 0.00 | 0.00 | 93 | 1012.0 |
| 20260906063344 | 71 | 115 | 0.0 | 0.0 | 0.00 | 0.00 | 0.00 | 93 | 1012.1 |
| 20260906062839 | 71 | 115 | 0.0 | 0.0 | 0.00 | 0.00 | 0.00 | 93 | 1012.0 |
| 20260906062338 | 71 | 115 | 0.0 | 0.0 | 0.00 | 0.00 | 0.00 | 93 | 1012.0 |
| 20260906061833 | 71 | 102 | 0.0 | 0.0 | 0.00 | 0.00 | 0.00 | 93 | 1012.2 |
| 20260906061330 | 71 | 94 | 0.0 | 0.0 | 0.00 | 0.00 | 0.00 | 93 | 1012.1 |
| 20260906060824 | 71 | 94 | 0.0 | 0.0 | 0.00 | 0.00 | 0.00 | 93 | 1012.3 |
| 20260906060322 | 72 | 94 | 0.0 | 0.0 | 0.00 | 0.00 | 0.00 | 93 | 1012.5 |
| 20260906055818 | 72 | 94 | 0.0 | 0.0 | 0.00 | 0.00 | 0.00 | 93 | 1012.3 |
| 20260906055313 | 71 | 124 | 0.0 | 0.0 | 0.00 | 0.00 | 0.00 | 93 | 1012.3 |
| 20260906054809 | 71 | 124 | 0.0 | 0.0 | 0.00 | 0.00 | 0.00 | 93 | 1012.3 |
| 20260906054304 | 71 | 124 | 0.0 | 0.0 | 0.00 | 0.00 | 0.00 | 93 | 1012.3 |
| 20260906053800 | 71 | 124 | 0.0 | 0.0 | 0.00 | 0.00 | 0.00 | 93 | 1012.4 |
| 20260906053256 | 72 | 125 | 0.0 | 0.0 | 0.00 | 0.00 | 0.00 | 93 | 1012.2 |
| 20260906052750 | 71 | 125 | 0.0 | 0.0 | 0.00 | 0.00 | 0.00 | 93 | 1012.3 |
| 20260906052246 | 71 | 125 | 0.0 | 0.0 | 0.00 | 0.00 | 0.00 | 93 | 1012.5 |
| 20260906051743 | 72 | 125 | 0.0 | 0.0 | 0.00 | 0.00 | 0.00 | 93 | 1012.6 |
| 20260906051243 | 72 | 125 | 0.0 | 0.0 | 0.00 | 0.00 | 0.00 | 93 | 1012.6 |
| 20260906050738 | 71 | 125 | 0.0 | 0.0 | 0.00 | 0.00 | 0.00 | 93 | 1012.7 |
| 20260906050233 | 71 | 125 | 0.0 | 0.0 | 0.00 | 0.00 | 0.00 | 93 | 1012.7 |
| 20260906045732 | 72 | 125 | 0.0 | 0.0 | 0.00 | 0.00 | 0.00 | 93 | 1012.4 |
| 20260906045227 | 72 | 126 | 0.0 | 0.0 | 0.00 | 0.00 | 0.00 | 93 | 1012.4 |
| 20260906044723 | 72 | 126 | 0.0 | 0.0 | 0.00 | 0.00 | 0.00 | 93 | 1012.5 |
| 20260906044218 | 72 | 126 | 0.0 | 0.0 | 0.00 | 0.00 | 0.00 | 93 | 1012.5 |
| 20260906043714 | 71 | 127 | 0.0 | 0.0 | 0.00 | 0.00 | 0.00 | 93 | 1012.5 |
| 20260906043210 | 71 | 127 | 0.0 | 0.0 | 0.00 | 0.00 | 0.00 | 93 | 1012.6 |
| 20260906042709 | 71 | 126 | 0.0 | 0.0 | 0.00 | 0.00 | 0.00 | 93 | 1012.5 |
| 20260906042209 | 72 | 126 | 0.0 | 0.0 | 0.00 | 0.00 | 0.00 | 93 | 1012.5 |
| 20260906041704 | 72 | 126 | 0.0 | 0.0 | 0.00 | 0.00 | 0.00 | 93 | 1012.6 |
| 20260906041159 | 72 | 126 | 0.0 | 0.0 | 0.00 | 0.00 | 0.00 | 93 | 1012.5 |
| 20260906040655 | 72 | 126 | 0.0 | 0.0 | 0.00 | 0.00 | 0.00 | 93 | 1012.5 |
| 20260906040150 | 72 | 127 | 0.0 | 0.0 | 0.00 | 0.00 | 0.00 | 93 | 1012.3 |
| 20260906035645 | 72 | 127 | 0.0 | 0.0 | 0.00 | 0.36 | 0.36 | 93 | 1012.4 |
| 20260906035142 | 72 | 128 | 0.0 | 0.9 | 0.00 | 0.36 | 0.36 | 93 | 1012.4 |
| 20260906034636 | 72 | 127 | 0.0 | 0.0 | 0.00 | 0.36 | 0.36 | 93 | 1012.6 |
| 20260906034136 | 72 | 127 | 0.0 | 0.0 | 0.00 | 0.36 | 0.36 | 93 | 1012.6 |
| 20260906033631 | 72 | 123 | 0.0 | 0.0 | 0.00 | 0.36 | 0.36 | 93 | 1012.8 |
| 20260906033126 | 72 | 123 | 0.0 | 0.0 | 0.00 | 0.36 | 0.36 | 93 | 1012.6 |
| 20260906032623 | 72 | 123 | 0.0 | 0.0 | 0.00 | 0.36 | 0.36 | 93 | 1012.7 |
| 20260906032122 | 72 | 123 | 0.0 | 0.0 | 0.00 | 0.36 | 0.36 | 93 | 1012.9 |
| 20260906031618 | 72 | 123 | 0.0 | 0.0 | 0.00 | 0.36 | 0.36 | 93 | 1013.0 |
| 20260906031113 | 72 | 123 | 0.0 | 0.0 | 0.00 | 0.36 | 0.36 | 93 | 1013.0 |
| 20260906030612 | 73 | 122 | 0.0 | 0.0 | 0.00 | 0.36 | 0.36 | 93 | 1013.1 |
| 20260906030108 | 73 | 126 | 0.0 | 0.0 | 0.00 | 0.36 | 0.36 | 93 | 1013.0 |
| 20260906025607 | 73 | 157 | 0.0 | 0.0 | 0.00 | 0.36 | 0.36 | 93 | 1013.2 |
| 20260906025106 | 72 | 157 | 0.0 | 0.0 | 0.00 | 0.36 | 0.36 | 93 | 1013.2 |
| 20260906024601 | 72 | 157 | 0.0 | 0.0 | 0.00 | 0.36 | 0.36 | 93 | 1013.1 |
| 20260906024055 | 73 | 157 | 0.0 | 0.9 | 0.00 | 0.36 | 0.36 | 93 | 1013.2 |
| 20260906023551 | 73 | 157 | 0.0 | 0.0 | 0.00 | 0.36 | 0.36 | 93 | 1013.3 |
| 20260906023046 | 73 | 157 | 0.0 | 0.0 | 0.00 | 0.36 | 0.36 | 93 | 1013.4 |
| 20260906022541 | 73 | 157 | 0.0 | 0.0 | 0.00 | 0.36 | 0.36 | 93 | 1013.2 |
| 20260906022036 | 73 | 157 | 0.0 | 0.0 | 0.00 | 0.36 | 0.36 | 93 | 1013.3 |
| 20260906021532 | 73 | 157 | 0.0 | 0.0 | 0.00 | 0.36 | 0.36 | 93 | 1013.4 |
| 20260906021031 | 73 | 147 | 0.0 | 0.0 | 0.00 | 0.36 | 0.36 | 93 | 1013.4 |
| 20260906020530 | 73 | 147 | 0.0 | 0.0 | 0.00 | 0.36 | 0.36 | 93 | 1013.4 |
| 20260906020025 | 73 | 145 | 0.0 | 0.0 | 0.00 | 0.36 | 0.36 | 93 | 1013.3 |
| 20260906015524 | 73 | 157 | 0.0 | 0.0 | 0.00 | 0.36 | 0.36 | 93 | 1013.2 |
| 20260906015024 | 73 | 157 | 0.0 | 0.0 | 0.00 | 0.36 | 0.36 | 92 | 1012.9 |
| 20260906014519 | 73 | 157 | 0.0 | 0.9 | 0.00 | 0.36 | 0.36 | 92 | 1013.0 |
| 20260906014015 | 73 | 136 | 0.9 | 1.7 | 0.00 | 0.36 | 0.36 | 92 | 1013.2 |
| 20260906013510 | 73 | 159 | 0.0 | 0.0 | 0.00 | 0.36 | 0.36 | 92 | 1012.9 |
| 20260906013006 | 73 | 159 | 0.0 | 0.9 | 0.00 | 0.36 | 0.36 | 92 | 1012.9 |
| 20260906012501 | 73 | 134 | 0.0 | 0.0 | 0.00 | 0.36 | 0.36 | 92 | 1013.1 |
| 20260906011959 | 73 | 151 | 0.0 | 0.0 | 0.00 | 0.36 | 0.36 | 92 | 1013.0 |
| 20260906011456 | 73 | 135 | 0.0 | 0.0 | 0.00 | 0.36 | 0.36 | 92 | 1012.9 |
| 20260906010950 | 73 | 132 | 0.0 | 0.0 | 0.00 | 0.36 | 0.36 | 92 | 1012.7 |
| 20260906010446 | 73 | 158 | 0.0 | 0.0 | 0.00 | 0.36 | 0.36 | 92 | 1012.8 |
| 20260906005943 | 73 | 159 | 0.9 | 0.9 | 0.00 | 0.36 | 0.36 | 92 | 1012.6 |
| 20260906005441 | 73 | 147 | 0.0 | 0.0 | 0.00 | 0.36 | 0.36 | 92 | 1012.2 |
| 20260906004940 | 73 | 133 | 0.0 | 0.9 | 0.00 | 0.36 | 0.36 | 92 | 1012.1 |
| 20260906004434 | 73 | 118 | 0.9 | 0.9 | 0.00 | 0.36 | 0.36 | 92 | 1012.3 |
| 20260906003930 | 73 | 100 | 0.9 | 0.9 | 0.00 | 0.36 | 0.36 | 92 | 1012.3 |
| 20260906003425 | 73 | 92 | 1.7 | 1.7 | 0.00 | 0.36 | 0.36 | 92 | 1012.0 |
| 20260906002920 | 73 | 95 | 0.0 | 0.9 | 0.00 | 0.36 | 0.36 | 92 | 1012.0 |
| 20260906002420 | 73 | 162 | 0.0 | 0.9 | 0.00 | 0.36 | 0.36 | 92 | 1011.7 |
| 20260906001915 | 73 | 167 | 1.7 | 2.6 | 0.00 | 0.36 | 0.36 | 92 | 1011.8 |
| 20260906001411 | 73 | 155 | 0.0 | 0.9 | 0.00 | 0.36 | 0.36 | 92 | 1011.5 |
| 20260906000911 | 73 | 155 | 0.0 | 0.0 | 0.00 | 0.36 | 0.36 | 92 | 1011.7 |
| 20260906000406 | 73 | 157 | 2.6 | 2.6 | 0.00 | 0.36 | 0.36 | 92 | 1011.8 |
| 20260905235901 | 73 | 94 | 1.7 | 1.7 | 0.00 | 0.36 | 0.36 | 91 | 1011.2 |
| 20260905235355 | 73 | 73 | 1.7 | 1.7 | 0.00 | 0.36 | 0.36 | 91 | 1010.6 |
| 20260905234850 | 73 | 118 | 0.0 | 0.0 | 0.00 | 0.36 | 0.36 | 91 | 1010.0 |
| 20260905234345 | 73 | 118 | 0.0 | 0.0 | 0.00 | 0.36 | 0.36 | 91 | 1009.7 |
| 20260905233840 | 73 | 118 | 0.0 | 0.0 | 0.00 | 0.36 | 0.36 | 91 | 1009.5 |
| 20260905233335 | 72 | 118 | 0.9 | 0.9 | 0.00 | 0.36 | 0.36 | 91 | 1009.6 |
| 20260905232835 | 72 | 99 | 0.0 | 0.9 | 0.00 | 0.36 | 0.36 | 91 | 1009.8 |
| 20260905232331 | 72 | 97 | 0.0 | 0.9 | 0.00 | 0.36 | 0.36 | 90 | 1010.2 |
| 20260905231826 | 71 | 103 | 0.0 | 0.0 | 0.00 | 0.36 | 0.36 | 90 | 1010.6 |
| 20260905231321 | 71 | 99 | 0.0 | 1.7 | 0.00 | 0.36 | 0.36 | 90 | 1011.2 |
| 20260905230818 | 71 | 88 | 0.9 | 1.7 | 0.00 | 0.36 | 0.36 | 90 | 1011.5 |
| 20260905230316 | 72 | 92 | 0.0 | 6.1 | 0.05 | 0.36 | 0.36 | 90 | 1011.7 |
| 20260905225815 | 72 | 93 | 3.5 | 5.2 | 0.24 | 0.36 | 0.36 | 90 | 1011.8 |
| 20260905225310 | 74 | 95 | 2.6 | 7.8 | 1.51 | 0.33 | 0.33 | 89 | 1011.9 |
| 20260905224810 | 74 | 27 | 3.5 | 7.8 | 1.63 | 0.32 | 0.32 | 89 | 1012.2 |
| 20260905224306 | 76 | 28 | 6.1 | 11.3 | 1.37 | 0.23 | 0.23 | 88 | 1012.1 |
| 20260905223801 | 89 | 44 | 5.2 | 11.3 | 0.00 | 0.00 | 0.00 | 57 | 1011.8 |
| 20260905223258 | 89 | 44 | 5.2 | 11.3 | 0.00 | 0.00 | 0.00 | 57 | 1011.8 |
| 20260905222753 | 92 | 53 | 2.6 | 5.2 | 0.00 | 0.00 | 0.00 | 54 | 1011.1 |
| 20260905222252 | 97 | 27 | 4.3 | 6.1 | 0.00 | 0.00 | 0.00 | 47 | 1011.1 |
| 20260905221748 | 99 | 190 | 1.7 | 1.7 | 0.00 | 0.00 | 0.00 | 45 | 1010.1 |
| 20260905221245 | 98 | 178 | 0.9 | 1.7 | 0.00 | 0.00 | 0.00 | 44 | 1010.2 |
| 20260905220740 | 98 | 179 | 0.0 | 2.6 | 0.00 | 0.00 | 0.00 | 43 | 1010.4 |
| 20260905220236 | 99 | 178 | 0.9 | 0.9 | 0.00 | 0.00 | 0.00 | 43 | 1010.1 |
| 20260905215735 | 98 | 183 | 0.9 | 1.7 | 0.00 | 0.00 | 0.00 | 43 | 1010.2 |
| 20260905215231 | 99 | 187 | 0.9 | 1.7 | 0.00 | 0.00 | 0.00 | 45 | 1010.2 |
| 20260905214727 | 98 | 190 | 0.9 | 1.7 | 0.00 | 0.00 | 0.00 | 45 | 1009.8 |
| 20260905214222 | 98 | 186 | 0.9 | 2.6 | 0.00 | 0.00 | 0.00 | 44 | 1009.9 |
| 20260905213718 | 99 | 181 | 1.7 | 2.6 | 0.00 | 0.00 | 0.00 | 44 | 1010.0 |
| 20260905213214 | 99 | 187 | 0.0 | 1.7 | 0.00 | 0.00 | 0.00 | 43 | 1009.9 |
| 20260905212709 | 98 | 261 | 0.9 | 1.7 | 0.00 | 0.00 | 0.00 | 43 | 1009.8 |
| 20260905212208 | 98 | 129 | 1.7 | 5.2 | 0.00 | 0.00 | 0.00 | 45 | 1009.9 |
| 20260905211702 | 99 | 197 | 1.7 | 1.7 | 0.00 | 0.00 | 0.00 | 44 | 1010.0 |
| 20260905211158 | 98 | 105 | 0.9 | 2.6 | 0.00 | 0.00 | 0.00 | 44 | 1010.1 |
| 20260905210655 | 99 | 187 | 0.9 | 2.6 | 0.00 | 0.00 | 0.00 | 44 | 1010.0 |
| 20260905210154 | 99 | 190 | 0.9 | 2.6 | 0.00 | 0.00 | 0.00 | 44 | 1010.3 |
| 20260905205654 | 98 | 178 | 0.9 | 4.3 | 0.00 | 0.00 | 0.00 | 43 | 1010.3 |
| 20260905205153 | 98 | 214 | 1.7 | 5.2 | 0.00 | 0.00 | 0.00 | 45 | 1010.3 |
| 20260905204652 | 99 | 174 | 0.9 | 2.6 | 0.00 | 0.00 | 0.00 | 43 | 1010.4 |
| 20260905204148 | 99 | 212 | 2.6 | 2.6 | 0.00 | 0.00 | 0.00 | 43 | 1010.5 |
| 20260905203643 | 99 | 182 | 0.0 | 2.6 | 0.00 | 0.00 | 0.00 | 42 | 1010.8 |
| 20260905203139 | 100 | 88 | 0.9 | 1.7 | 0.00 | 0.00 | 0.00 | 44 | 1010.6 |
| 20260905202634 | 101 | 172 | 0.9 | 0.9 | 0.00 | 0.00 | 0.00 | 41 | 1010.7 |
| 20260905202129 | 100 | 172 | 0.0 | 0.9 | 0.00 | 0.00 | 0.00 | 43 | 1010.6 |
| 20260905201624 | 99 | 178 | 0.9 | 1.7 | 0.00 | 0.00 | 0.00 | 43 | 1010.8 |
| 20260905201124 | 100 | 178 | 0.0 | 0.9 | 0.00 | 0.00 | 0.00 | 43 | 1011.1 |
| 20260905200620 | 98 | 169 | 0.9 | 1.7 | 0.00 | 0.00 | 0.00 | 44 | 1010.9 |
| 20260905200115 | 97 | 168 | 0.0 | 0.0 | 0.00 | 0.00 | 0.00 | 44 | 1011.2 |
| 20260905195613 | 98 | 170 | 1.7 | 1.7 | 0.00 | 0.00 | 0.00 | 42 | 1010.9 |
| 20260905195109 | 100 | 185 | 0.9 | 1.7 | 0.00 | 0.00 | 0.00 | 42 | 1011.1 |
| 20260905194608 | 100 | 165 | 0.0 | 2.6 | 0.00 | 0.00 | 0.00 | 41 | 1011.3 |
| 20260905194108 | 100 | 176 | 0.9 | 2.6 | 0.00 | 0.00 | 0.00 | 40 | 1011.3 |
| 20260905193603 | 100 | 177 | 0.9 | 0.9 | 0.00 | 0.00 | 0.00 | 41 | 1011.3 |
| 20260905193058 | 98 | 183 | 0.9 | 0.9 | 0.00 | 0.00 | 0.00 | 41 | 1011.3 |
| 20260905192554 | 99 | 186 | 2.6 | 4.3 | 0.00 | 0.00 | 0.00 | 42 | 1011.4 |
| 20260905192050 | 98 | 184 | 0.9 | 1.7 | 0.00 | 0.00 | 0.00 | 41 | 1011.4 |
| 20260905191548 | 98 | 183 | 0.0 | 0.9 | 0.00 | 0.00 | 0.00 | 41 | 1011.6 |
| 20260905191047 | 98 | 176 | 0.0 | 0.9 | 0.00 | 0.00 | 0.00 | 45 | 1011.8 |
| 20260905190540 | 98 | 189 | 0.9 | 1.7 | 0.00 | 0.00 | 0.00 | 44 | 1011.8 |
| 20260905190039 | 97 | 91 | 0.9 | 2.6 | 0.00 | 0.00 | 0.00 | 46 | 1011.9 |
| 20260905185538 | 97 | 172 | 0.0 | 0.9 | 0.00 | 0.00 | 0.00 | 48 | 1012.0 |
| 20260905185032 | 97 | 183 | 0.9 | 0.9 | 0.00 | 0.00 | 0.00 | 45 | 1012.1 |
| 20260905184527 | 96 | 194 | 1.7 | 2.6 | 0.00 | 0.00 | 0.00 | 47 | 1012.2 |
| 20260905184025 | 95 | 188 | 0.0 | 0.9 | 0.00 | 0.00 | 0.00 | 47 | 1012.2 |
| 20260905183525 | 95 | 203 | 1.7 | 2.6 | 0.00 | 0.00 | 0.00 | 48 | 1012.1 |
| 20260905183021 | 94 | 127 | 0.0 | 0.9 | 0.00 | 0.00 | 0.00 | 49 | 1012.3 |
| 20260905182520 | 93 | 103 | 0.9 | 0.9 | 0.00 | 0.00 | 0.00 | 49 | 1012.4 |
| 20260905182015 | 94 | 96 | 0.9 | 1.7 | 0.00 | 0.00 | 0.00 | 49 | 1012.5 |
| 20260905181510 | 96 | 178 | 0.0 | 1.7 | 0.00 | 0.00 | 0.00 | 46 | 1012.4 |
| 20260905181009 | 96 | 195 | 1.7 | 2.6 | 0.00 | 0.00 | 0.00 | 47 | 1012.5 |
| 20260905180504 | 94 | 157 | 0.0 | 0.9 | 0.00 | 0.00 | 0.00 | 49 | 1012.6 |
| 20260905180000 | 95 | 166 | 0.0 | 0.9 | 0.00 | 0.00 | 0.00 | 50 | 1012.5 |
| 20260905175458 | 94 | 184 | 2.6 | 2.6 | 0.00 | 0.00 | 0.00 | 49 | 1012.6 |
| 20260905174954 | 94 | 156 | 0.9 | 0.9 | 0.00 | 0.00 | 0.00 | 50 | 1012.7 |
| 20260905174449 | 96 | 156 | 0.0 | 0.9 | 0.00 | 0.00 | 0.00 | 48 | 1012.8 |
| 20260905173945 | 96 | 156 | 0.0 | 1.7 | 0.00 | 0.00 | 0.00 | 48 | 1012.9 |
| 20260905173441 | 95 | 186 | 0.0 | 1.7 | 0.00 | 0.00 | 0.00 | 49 | 1012.9 |
| 20260905172937 | 94 | 153 | 0.0 | 0.9 | 0.00 | 0.00 | 0.00 | 51 | 1013.0 |
| 20260905172435 | 95 | 99 | 0.0 | 1.7 | 0.00 | 0.00 | 0.00 | 48 | 1013.1 |
| 20260905171931 | 96 | 86 | 1.7 | 6.1 | 0.00 | 0.00 | 0.00 | 49 | 1013.0 |
| 20260905171427 | 95 | 120 | 0.0 | 1.7 | 0.00 | 0.00 | 0.00 | 49 | 1013.0 |
| 20260905170923 | 94 | 121 | 0.0 | 2.6 | 0.00 | 0.00 | 0.00 | 51 | 1013.0 |
| 20260905170418 | 94 | 82 | 1.7 | 1.7 | 0.00 | 0.00 | 0.00 | 52 | 1013.1 |
| 20260905165917 | 95 | 74 | 2.6 | 5.2 | 0.00 | 0.00 | 0.00 | 51 | 1013.2 |
| 20260905165413 | 93 | 130 | 0.9 | 1.7 | 0.00 | 0.00 | 0.00 | 51 | 1013.2 |
| 20260905164908 | 94 | 169 | 0.9 | 5.2 | 0.00 | 0.00 | 0.00 | 51 | 1013.4 |
| 20260905164403 | 95 | 101 | 1.7 | 1.7 | 0.00 | 0.00 | 0.00 | 51 | 1013.5 |
| 20260905163858 | 95 | 206 | 2.6 | 4.3 | 0.00 | 0.00 | 0.00 | 50 | 1013.4 |
| 20260905163355 | 93 | 83 | 0.9 | 1.7 | 0.00 | 0.00 | 0.00 | 53 | 1013.7 |
| 20260905162850 | 93 | 83 | 0.0 | 2.6 | 0.00 | 0.00 | 0.00 | 54 | 1013.5 |
| 20260905162350 | 94 | 96 | 1.7 | 1.7 | 0.00 | 0.00 | 0.00 | 53 | 1013.6 |
| 20260905161845 | 94 | 125 | 0.9 | 1.7 | 0.00 | 0.00 | 0.00 | 51 | 1013.7 |
| 20260905161344 | 93 | 195 | 0.0 | 1.7 | 0.00 | 0.00 | 0.00 | 54 | 1013.9 |
| 20260905160843 | 93 | 177 | 1.7 | 4.3 | 0.00 | 0.00 | 0.00 | 53 | 1013.9 |
| 20260905160337 | 92 | 188 | 0.9 | 1.7 | 0.00 | 0.00 | 0.00 | 54 | 1014.1 |
| 20260905155831 | 91 | 112 | 1.7 | 1.7 | 0.00 | 0.00 | 0.00 | 56 | 1013.8 |
| 20260905155330 | 91 | 93 | 0.9 | 1.7 | 0.00 | 0.00 | 0.00 | 56 | 1014.0 |
| 20260905154825 | 91 | 182 | 2.6 | 2.6 | 0.00 | 0.00 | 0.00 | 58 | 1014.2 |
| 20260905154320 | 91 | 87 | 0.9 | 1.7 | 0.00 | 0.00 | 0.00 | 58 | 1014.3 |
| 20260905153815 | 90 | 94 | 0.0 | 0.9 | 0.00 | 0.00 | 0.00 | 58 | 1014.1 |
| 20260905153312 | 91 | 176 | 2.6 | 2.6 | 0.00 | 0.00 | 0.00 | 59 | 1014.1 |
| 20260905152811 | 91 | 85 | 0.9 | 0.9 | 0.00 | 0.00 | 0.00 | 60 | 1014.3 |
| 20260905152310 | 90 | 138 | 0.0 | 0.9 | 0.00 | 0.00 | 0.00 | 60 | 1014.3 |
| 20260905151806 | 89 | 156 | 0.0 | 0.9 | 0.00 | 0.00 | 0.00 | 62 | 1014.4 |
| 20260905151302 | 88 | 158 | 0.0 | 1.7 | 0.00 | 0.00 | 0.00 | 63 | 1014.2 |
| 20260905150802 | 88 | 165 | 0.0 | 0.9 | 0.00 | 0.00 | 0.00 | 64 | 1014.1 |
| 20260905150301 | 88 | 189 | 1.7 | 2.6 | 0.00 | 0.00 | 0.00 | 63 | 1014.1 |
| 20260905145758 | 87 | 193 | 1.7 | 2.6 | 0.00 | 0.00 | 0.00 | 63 | 1014.2 |
| 20260905145253 | 87 | 175 | 0.9 | 2.6 | 0.00 | 0.00 | 0.00 | 65 | 1014.3 |
| 20260905144752 | 87 | 179 | 0.0 | 0.0 | 0.00 | 0.00 | 0.00 | 67 | 1014.2 |
| 20260905144248 | 86 | 184 | 1.7 | 1.7 | 0.00 | 0.00 | 0.00 | 67 | 1014.3 |
| 20260905143746 | 86 | 107 | 0.0 | 0.9 | 0.00 | 0.00 | 0.00 | 67 | 1014.4 |
| 20260905143241 | 86 | 92 | 0.0 | 0.9 | 0.00 | 0.00 | 0.00 | 67 | 1014.4 |
| 20260905142739 | 85 | 158 | 0.0 | 0.9 | 0.00 | 0.00 | 0.00 | 69 | 1014.3 |
| 20260905142234 | 85 | 159 | 0.9 | 0.9 | 0.00 | 0.00 | 0.00 | 69 | 1014.3 |
| 20260905141730 | 84 | 188 | 0.0 | 0.9 | 0.00 | 0.00 | 0.00 | 70 | 1014.4 |
| 20260905141226 | 84 | 239 | 1.7 | 2.6 | 0.00 | 0.00 | 0.00 | 70 | 1014.7 |
| 20260905140720 | 83 | 167 | 0.0 | 0.9 | 0.00 | 0.00 | 0.00 | 71 | 1014.6 |
| 20260905140215 | 83 | 175 | 1.7 | 2.6 | 0.00 | 0.00 | 0.00 | 73 | 1014.6 |
| 20260905135709 | 83 | 178 | 0.0 | 0.9 | 0.00 | 0.00 | 0.00 | 74 | 1014.7 |
| 20260905135205 | 82 | 144 | 0.0 | 0.0 | 0.00 | 0.00 | 0.00 | 75 | 1014.6 |
| 20260905134704 | 81 | 157 | 0.0 | 1.7 | 0.00 | 0.00 | 0.00 | 76 | 1014.8 |
| 20260905134204 | 81 | 154 | 0.0 | 0.9 | 0.00 | 0.00 | 0.00 | 78 | 1014.7 |
| 20260905133659 | 80 | 158 | 0.0 | 0.0 | 0.00 | 0.00 | 0.00 | 79 | 1014.6 |
| 20260905133154 | 80 | 157 | 0.0 | 0.0 | 0.00 | 0.00 | 0.00 | 81 | 1014.9 |
| 20260905132653 | 79 | 157 | 0.0 | 0.0 | 0.00 | 0.00 | 0.00 | 81 | 1014.9 |
| 20260905132148 | 78 | 158 | 0.0 | 1.7 | 0.00 | 0.00 | 0.00 | 83 | 1014.9 |
| 20260905131643 | 77 | 157 | 0.0 | 0.0 | 0.00 | 0.00 | 0.00 | 86 | 1014.8 |
| 20260905131138 | 77 | 157 | 0.0 | 0.0 | 0.00 | 0.00 | 0.00 | 88 | 1014.8 |
| 20260905130632 | 76 | 157 | 0.0 | 0.0 | 0.00 | 0.00 | 0.00 | 89 | 1015.0 |
| 20260905130133 | 75 | 158 | 0.0 | 0.0 | 0.00 | 0.00 | 0.00 | 90 | 1015.1 |
| 20260905125626 | 75 | 158 | 0.0 | 0.0 | 0.00 | 0.00 | 0.00 | 90 | 1014.8 |
| 20260905125123 | 74 | 158 | 0.0 | 0.0 | 0.00 | 0.00 | 0.00 | 90 | 1014.8 |
| 20260905124619 | 74 | 158 | 0.0 | 0.0 | 0.00 | 0.00 | 0.00 | 91 | 1014.9 |
| 20260905124115 | 74 | 157 | 0.0 | 0.0 | 0.00 | 0.00 | 0.00 | 91 | 1014.9 |
| 20260905123609 | 74 | 157 | 0.0 | 0.0 | 0.00 | 0.00 | 0.00 | 91 | 1014.8 |